"startDT [UTC]","vpos","CH4 [ppm]","stdev(CH4) [ppm]","CO2 [ppm]","stdev(CO2) [ppm]","H2O [ppm]","stdev(H2O)","p_LGR [torr]","T_LGR [C]","mt1_LGR [us]","mt2_LGR [us]","T_ECpre [C]","T_EC1 [C]","T_EC2 [C]","p_inlet [hPa]","p_in [hPa]","p_out [hPa]","T_inlet [C]","RH_inlet [%]","dwpt_inlet [C]","T_vent [C]","RH_vent [%]","dwpt_vent [C]","flow_vent [l min-1]","flow_inlet [l min-1]","dwpt_sample [C]","T_room [C]"
2012-07-22 00:00:00,0.0,1.8924,0.0010,388.77,0.32,10.9,21.1,138.14,27.67,24.62,36.43,0.88,-26.73,17.63,-56,533,-936,22.7,21.4,-0.5,22.8,1.8,-30.1,5.73,2.43,-29.0,27.8
2012-07-22 00:01:00,0.0,1.8926,0.0011,388.76,0.28,11.3,16.5,138.14,27.67,24.62,36.44,0.91,-26.73,17.65,-56,533,-936,22.7,21.5,-0.4,22.8,1.8,-30.1,5.73,2.42,-28.9,27.8
2012-07-22 00:02:00,0.0,1.8923,0.0010,388.92,0.33,10.3,18.1,138.13,27.67,24.63,36.43,0.91,-26.73,17.68,-56,533,-936,22.7,21.4,-0.5,22.8,1.8,-30.1,5.73,2.42,-28.9,27.9
2012-07-22 00:03:00,0.0,1.8926,0.0009,388.92,0.31,12.5,20.2,138.13,27.67,24.62,36.43,0.93,-26.72,17.71,-56,534,-936,22.8,21.2,-0.6,22.9,1.8,-30.1,5.73,2.41,-28.8,27.9
2012-07-22 00:04:00,0.0,1.8929,0.0008,389.15,0.32,12.5,19.9,138.13,27.67,24.62,36.44,0.94,-26.72,17.73,-56,534,-937,22.8,20.8,-0.8,22.9,1.8,-30.1,5.73,2.41,-28.8,28.0
2012-07-22 00:05:00,0.0,1.8927,0.0011,389.24,0.26,17.3,24.3,138.13,27.67,24.62,36.43,0.90,-26.71,17.75,-56,534,-937,22.8,20.7,-0.9,22.9,1.8,-30.1,5.73,2.42,-28.8,27.9
2012-07-22 00:06:00,0.0,1.8926,0.0008,389.17,0.30,18.2,19.8,138.13,27.68,24.63,36.44,0.88,-26.71,17.78,-56,534,-937,22.8,20.8,-0.8,22.9,1.8,-30.0,5.73,2.42,-28.7,27.9
2012-07-22 00:07:00,0.0,1.8935,0.0009,389.18,0.29,15.5,23.5,138.13,27.68,24.62,36.43,0.87,-26.71,17.80,-56,534,-937,22.9,20.8,-0.7,23.0,1.8,-30.0,5.73,2.43,-28.7,28.0
2012-07-22 00:08:00,0.0,1.8932,0.0011,388.94,0.23,19.3,24.3,138.13,27.68,24.63,36.44,0.87,-26.71,17.82,-56,534,-937,22.9,21.0,-0.6,23.0,1.8,-30.0,5.73,2.43,-28.6,27.9
2012-07-22 00:09:00,0.0,1.8930,0.0008,388.86,0.34,20.8,22.7,138.13,27.68,24.62,36.44,0.88,-26.70,17.85,-56,534,-937,22.9,21.2,-0.5,23.0,1.8,-30.0,5.73,2.42,-28.6,28.0
2012-07-22 00:10:00,0.0,1.8930,0.0009,388.91,0.23,20.8,24.9,138.13,27.68,24.63,36.44,0.90,-26.70,17.87,-56,534,-937,22.9,21.2,-0.5,23.0,1.8,-30.0,5.73,2.41,-28.6,28.0
2012-07-22 00:11:00,0.0,1.8929,0.0009,389.19,0.30,28.9,28.8,138.13,27.69,24.63,36.44,0.91,-26.69,17.88,-56,534,-937,22.9,21.0,-0.6,23.0,1.8,-30.0,5.73,2.40,-28.5,28.2
2012-07-22 00:12:00,0.0,1.8930,0.0010,389.21,0.24,24.2,25.9,138.13,27.69,24.63,36.44,0.93,-26.69,17.90,-56,534,-938,22.9,21.0,-0.6,23.0,1.8,-30.0,5.73,2.40,-28.5,28.1
2012-07-22 00:13:00,0.0,1.8937,0.0008,389.14,0.30,31.6,30.0,138.13,27.70,24.63,36.44,0.94,-26.69,17.92,-56,534,-938,22.9,21.0,-0.6,23.1,1.8,-30.0,5.73,2.41,-28.5,28.2
2012-07-22 00:14:00,0.0,1.8941,0.0009,389.04,0.33,29.9,29.2,138.13,27.70,24.62,36.44,0.93,-26.68,17.94,-56,534,-938,22.9,21.0,-0.5,23.1,1.8,-30.0,5.73,2.42,-28.4,28.2
2012-07-22 00:15:00,0.0,1.8942,0.0010,388.87,0.30,33.2,28.3,138.12,27.71,24.63,36.44,0.89,-26.68,17.96,-56,534,-938,22.9,21.3,-0.3,23.1,1.8,-30.1,5.73,2.42,-28.4,28.3
2012-07-22 00:16:00,0.0,1.8942,0.0010,388.87,0.27,25.4,25.8,138.12,27.72,24.63,36.44,0.84,-26.67,17.97,-56,535,-938,22.9,21.3,-0.4,23.1,1.8,-30.1,5.73,2.41,-28.4,28.3
2012-07-22 00:17:00,0.0,1.8946,0.0008,388.87,0.33,32.4,25.6,138.12,27.73,24.63,36.44,0.97,-26.67,17.85,-56,535,-938,23.0,21.3,-0.3,23.2,1.8,-30.1,5.73,2.41,-28.4,28.3
2012-07-22 00:18:00,0.0,1.8950,0.0009,388.64,0.30,30.4,29.2,138.12,27.74,24.62,36.44,1.05,-26.66,16.35,-56,535,-938,23.0,21.6,-0.1,23.2,1.8,-30.0,5.73,2.39,-28.3,28.4
2012-07-22 00:19:00,0.0,1.8951,0.0008,388.37,0.34,35.7,31.6,138.12,27.74,24.63,36.44,1.03,-26.65,14.09,-56,535,-938,23.0,21.8,0.0,23.2,1.8,-30.0,5.73,2.39,-28.3,28.5
2012-07-22 00:20:00,0.0,1.8955,0.0010,388.48,0.34,33.0,27.0,138.12,27.75,24.63,36.44,1.04,-26.66,11.73,-56,535,-938,23.0,21.8,0.0,23.2,1.8,-30.1,5.73,2.40,-28.2,28.5
2012-07-22 00:21:00,0.0,1.8958,0.0010,388.42,0.28,30.6,30.0,138.12,27.76,24.62,36.44,0.94,-26.66,9.40,-56,535,-938,23.0,21.8,0.1,23.2,1.7,-30.2,5.73,2.41,-28.2,28.6
2012-07-22 00:22:00,0.0,1.8945,0.0009,388.86,0.28,40.1,31.7,138.12,27.78,24.63,36.45,0.99,-26.67,7.15,-56,535,-938,23.1,21.2,-0.4,23.3,1.7,-30.3,5.73,2.41,-28.1,28.7
2012-07-22 00:23:00,0.0,1.8955,0.0008,388.83,0.28,37.1,26.6,138.12,27.79,24.63,36.45,1.08,-26.67,5.00,-56,535,-937,23.1,21.2,-0.3,23.3,1.7,-30.1,5.73,2.40,-28.1,28.7
2012-07-22 00:24:00,0.0,1.8957,0.0007,388.62,0.29,39.7,27.6,138.12,27.80,24.62,36.44,0.96,-26.66,2.96,-56,535,-937,23.1,21.5,-0.1,23.3,1.7,-30.1,5.73,2.38,-28.1,28.8
2012-07-22 00:25:00,0.0,1.8953,0.0008,388.65,0.27,44.3,30.1,138.11,27.81,24.63,36.45,0.97,-26.66,1.02,-56,535,-937,23.2,21.4,-0.1,23.4,1.7,-30.2,5.73,2.38,-28.0,28.9
2012-07-22 00:26:00,0.0,1.8953,0.0009,388.68,0.31,52.4,34.9,138.11,27.82,24.63,36.44,1.07,-26.66,-0.81,-56,536,-937,23.2,21.4,-0.1,23.4,1.7,-30.4,5.73,2.38,-28.0,28.9
2012-07-22 00:27:00,0.0,1.8957,0.0011,388.69,0.30,47.4,33.2,138.11,27.83,24.63,36.45,0.98,-26.66,-2.54,-56,536,-937,23.2,21.4,-0.0,23.4,1.7,-30.0,5.73,2.39,-28.0,28.9
2012-07-22 00:28:00,0.0,1.8961,0.0009,388.33,0.27,42.6,33.4,138.11,27.85,24.63,36.45,0.94,-26.66,-3.92,-56,536,-938,23.3,21.6,0.1,23.5,1.8,-29.9,5.73,2.40,-27.9,28.9
2012-07-22 00:29:00,0.0,1.8959,0.0009,388.85,0.23,53.6,32.6,138.11,27.86,24.63,36.45,1.01,-26.66,-5.29,-56,536,-938,23.3,21.0,-0.3,23.5,1.7,-30.1,5.73,2.39,-27.9,28.8
2012-07-22 00:30:00,0.0,1.8954,0.0009,388.92,0.25,41.4,35.5,138.11,27.87,24.63,36.45,1.04,-26.66,-6.49,-56,536,-938,23.3,20.5,-0.6,23.5,1.7,-30.2,5.73,2.38,-28.0,28.6
2012-07-22 00:31:00,0.0,1.8954,0.0008,388.79,0.27,33.5,34.2,138.11,27.89,24.63,36.45,0.95,-26.67,-7.71,-56,536,-938,23.3,20.6,-0.5,23.5,1.7,-30.2,5.73,2.37,-28.1,28.8
2012-07-22 00:32:00,0.0,1.8970,0.0026,443.14,101.89,28.8,26.4,138.11,27.89,24.63,36.44,0.92,-26.68,-8.97,-44,538,-938,23.3,24.1,1.4,23.5,1.7,-30.2,5.73,1.98,-28.2,28.8
2012-07-22 00:33:00,0.0,1.9049,0.0048,845.87,247.47,19.5,22.6,138.12,27.90,24.62,36.24,1.00,-26.70,-10.14,-38,538,-938,23.3,25.0,2.1,23.4,1.7,-30.3,5.73,2.30,-28.4,28.8
2012-07-22 00:34:00,0.0,1.8962,0.0012,393.27,6.29,20.2,24.9,138.12,27.90,24.63,36.44,1.03,-26.71,-11.24,-42,537,-939,23.3,21.6,0.1,23.4,1.7,-30.2,5.73,2.45,-28.5,28.5
2012-07-22 00:35:00,0.0,1.8959,0.0009,388.84,0.27,16.4,24.0,138.12,27.90,24.63,36.44,0.96,-26.72,-12.30,-42,537,-938,23.3,21.8,0.3,23.4,1.7,-30.3,5.73,2.45,-28.6,28.5
2012-07-22 00:36:00,0.0,1.8954,0.0010,388.67,0.27,9.3,14.8,138.12,27.91,24.63,36.44,0.92,-26.74,-13.29,-42,537,-938,23.3,21.8,0.3,23.4,1.7,-30.5,5.73,2.44,-28.7,28.5
2012-07-22 00:37:00,0.0,1.8954,0.0008,389.22,0.41,6.1,14.6,138.12,27.90,24.63,36.45,0.97,-26.76,-14.23,-42,537,-938,23.3,21.2,-0.1,23.4,1.7,-30.6,5.73,2.45,-28.8,28.6
2012-07-22 00:38:00,0.0,1.8950,0.0009,388.76,0.32,8.4,15.1,138.12,27.90,24.63,36.45,1.00,-26.78,-15.15,-42,537,-938,23.3,21.4,-0.0,23.4,1.7,-30.6,5.73,2.45,-28.8,28.6
2012-07-22 00:39:00,0.0,1.8952,0.0011,389.09,0.24,6.6,13.6,138.13,27.90,24.63,36.45,0.99,-26.80,-16.04,-42,537,-939,23.3,21.2,-0.2,23.3,1.7,-30.3,5.73,2.45,-28.8,28.7
2012-07-22 00:40:00,0.6,1.9016,0.0055,387.53,1.35,1.8,8.8,138.13,27.90,24.63,36.45,0.93,-26.82,-16.92,-42,588,-939,23.2,21.5,0.0,23.3,1.7,-30.5,5.73,2.44,-28.9,28.7
2012-07-22 00:41:00,0.0,1.8952,0.0021,388.73,0.50,6.8,13.4,138.13,27.90,24.63,36.45,0.94,-26.84,-17.67,-42,536,-939,23.2,21.7,0.1,23.3,1.7,-30.7,5.73,2.45,-28.9,28.7
"startDT [UTC]","vpos","CH4 [ppm]","stdev(CH4) [ppm]","CO2 [ppm]","stdev(CO2) [ppm]","H2O [ppm]","stdev(H2O)","p_LGR [torr]","T_LGR [C]","mt1_LGR [us]","mt2_LGR [us]","T_ECpre [C]","T_EC1 [C]","T_EC2 [C]","p_inlet [hPa]","p_in [hPa]","p_out [hPa]","T_inlet [C]","RH_inlet [%]","dwpt_inlet [C]","T_vent [C]","RH_vent [%]","dwpt_vent [C]","flow_vent [l min-1]","flow_inlet [l min-1]","dwpt_sample [C]","T_room [C]"
2012-07-22 00:41:00,0.0,1.8977,0.0017,388.07,0.51,4.6,15.8,138.13,27.90,24.63,36.45,0.93,-26.84,-17.63,-42,536,-938,23.2,21.7,0.1,23.3,1.7,-30.5,5.73,2.46,-28.9,28.7
2012-07-22 00:42:00,0.9,1.9013,0.0052,387.11,1.71,4.1,11.6,138.13,27.89,24.63,36.45,0.94,-26.87,-18.28,-42,608,-939,23.2,21.5,0.0,23.3,1.7,-30.5,5.73,2.44,-28.9,28.6
2012-07-22 00:42:00,0.9,1.9058,0.0035,385.51,1.17,5.3,14.4,138.13,27.89,24.63,36.45,1.01,-26.87,-18.30,-42,615,-939,23.2,21.6,0.0,23.3,1.7,-30.6,5.73,2.43,-28.9,28.6
2012-07-22 00:43:00,1.0,1.9081,0.0009,384.69,0.21,3.5,11.0,138.13,27.89,24.63,36.45,1.06,-26.90,-18.98,-42,621,-1080,23.2,21.3,-0.2,23.2,1.7,-30.6,5.73,2.44,-29.0,28.6
2012-07-22 00:43:00,0.9,1.9083,0.0009,384.71,0.21,-0.4,3.7,138.13,27.89,24.63,36.44,1.01,-26.90,-18.98,-42,621,-938,23.2,21.3,-0.2,23.2,1.7,-30.5,5.73,2.44,-29.0,28.6
2012-07-22 00:44:00,1.0,1.9076,0.0010,384.68,0.24,1.8,8.8,138.13,27.88,24.63,36.44,0.97,-26.92,-19.64,-41,618,-938,23.2,21.1,-0.3,23.2,1.7,-30.5,5.73,2.43,-29.0,28.6
2012-07-22 00:44:00,1.0,1.9073,0.0010,384.67,0.26,0.2,4.6,138.13,27.89,24.63,36.44,0.96,-26.92,-19.61,-41,618,-938,23.2,21.1,-0.3,23.2,1.7,-30.6,5.73,2.43,-29.0,28.6
2012-07-22 00:45:00,0.0,1.8998,0.0054,387.07,1.72,5.6,14.8,138.13,27.88,24.63,36.45,0.94,-26.94,-20.25,-42,541,-939,23.1,21.4,-0.1,23.2,1.7,-30.7,5.73,2.45,-35.0,28.6
2012-07-22 00:45:00,0.0,1.9006,0.0050,386.90,1.56,0.9,4.5,138.13,27.88,24.63,36.44,0.89,-26.94,-20.27,-42,536,-938,23.1,21.4,-0.1,23.2,1.7,-30.7,5.73,2.47,-29.0,28.6
2012-07-22 00:46:00,0.0,1.8944,0.0009,388.92,0.34,2.6,10.5,138.13,27.88,24.63,36.44,0.93,-26.96,-20.81,-42,535,-939,23.1,21.6,-0.0,23.2,1.7,-30.6,5.73,2.43,-29.0,28.6
2012-07-22 00:46:00,0.0,1.8947,0.0008,388.91,0.40,-1.0,0.0,138.13,27.88,24.63,36.44,0.92,-26.96,-20.84,-42,536,-939,23.1,21.6,-0.0,23.2,1.7,-30.7,5.73,2.44,-29.0,28.6
2012-07-22 00:47:00,0.0,,,,,,,,,,,0.96,-26.99,-21.37,-42,536,-938,23.1,21.6,-0.0,23.2,1.7,-30.8,5.73,2.46,-29.0,28.6
2012-07-22 00:47:00,0.0,1.8944,0.0007,389.02,0.30,3.5,10.4,138.13,27.88,24.63,36.44,0.96,-26.99,-21.37,-42,536,-938,23.1,21.6,-0.0,23.2,1.7,-30.7,5.73,2.45,-29.1,28.6
2012-07-22 00:48:00,0.0,1.8942,0.0010,388.76,0.28,2.2,9.4,138.13,27.88,24.63,36.44,1.00,-27.01,-21.88,-42,535,-939,23.1,21.8,0.1,23.1,1.7,-30.6,5.73,2.45,-29.0,28.6
2012-07-22 00:48:00,0.0,1.8940,0.0004,388.61,0.30,-1.0,0.0,138.14,27.88,24.63,36.46,1.00,-27.01,-21.87,-42,535,-939,23.1,21.8,0.1,23.2,1.7,-30.6,5.73,2.46,-29.0,28.6
2012-07-22 00:49:00,3.6,1.8962,0.0000,388.59,0.00,-1.0,0.0,138.13,27.88,24.63,36.44,2.47,-56.25,-47.44,-41,613,-939,23.1,21.6,-0.0,23.1,1.7,-30.6,5.03,2.11,-36.1,28.5
2012-07-22 00:49:00,4.0,1.8554,0.0238,388.49,0.47,2.4,10.3,138.13,27.87,24.63,36.44,0.99,-27.04,-22.36,-41,610,-939,23.1,21.6,-0.0,23.1,1.7,-30.6,5.73,2.47,-29.0,28.5
2012-07-22 00:50:00,4.0,1.8310,0.0008,388.94,0.28,1.1,6.9,138.13,27.87,24.63,36.45,0.94,-27.06,-22.78,-41,609,-938,23.1,21.9,0.1,23.1,1.7,-30.7,5.73,2.48,-29.1,28.5
2012-07-22 00:50:00,3.7,1.8307,0.0008,389.15,0.25,-1.0,0.0,138.13,27.87,24.63,36.44,0.93,-27.06,-22.81,-41,609,-938,23.1,21.9,0.1,23.1,1.7,-30.7,5.73,2.46,-29.1,28.5
2012-07-22 00:51:00,4.0,1.8308,0.0008,389.20,0.29,1.1,9.2,138.13,27.87,24.63,36.44,0.90,-27.08,-23.24,-41,607,-939,23.0,22.0,0.2,23.1,1.7,-30.7,5.73,2.44,-29.1,28.5
2012-07-22 00:51:00,4.0,1.8306,0.0007,389.09,0.27,-0.8,0.9,138.13,27.88,24.63,36.44,0.91,-27.08,-23.23,-41,607,-939,23.0,22.0,0.2,23.1,1.7,-30.7,5.73,2.45,-29.1,28.5
2012-07-22 00:52:00,4.0,1.8303,0.0008,389.13,0.25,-0.7,1.6,138.13,27.87,24.63,36.44,0.95,-27.10,-23.63,-41,606,-938,23.1,21.6,-0.1,23.1,1.7,-30.9,5.73,2.43,-29.1,28.5
2012-07-22 00:52:00,4.0,1.8302,0.0009,389.23,0.27,2.8,6.3,138.14,27.87,24.63,36.44,0.95,-27.10,-23.62,-41,606,-938,23.1,21.6,-0.1,23.1,1.7,-30.8,5.73,2.42,-29.1,28.5
2012-07-22 00:53:00,4.0,1.8307,0.0009,389.17,0.22,1.3,8.1,138.14,27.87,24.63,36.44,0.97,-27.13,-24.01,-41,605,-1003,23.0,21.9,0.1,23.1,1.7,-30.8,5.73,2.42,-29.1,28.5
2012-07-22 00:53:00,4.0,1.8306,0.0008,389.01,0.20,-0.6,1.7,138.14,27.87,24.62,36.45,0.93,-27.13,-24.02,-41,605,-939,23.0,21.9,0.1,23.1,1.7,-30.8,5.73,2.42,-29.1,28.5
2012-07-22 00:54:00,4.0,1.8306,0.0011,389.14,0.32,0.3,6.1,138.14,27.87,24.63,36.44,0.96,-27.15,-24.36,-41,605,-938,23.1,21.8,0.1,23.1,1.6,-30.9,5.73,2.44,-29.1,28.4
2012-07-22 00:54:00,3.3,1.8302,0.0009,389.08,0.25,2.6,7.7,138.13,27.87,24.63,36.44,0.97,-27.15,-24.37,-41,605,-938,23.1,21.8,0.0,23.1,1.7,-30.8,5.73,2.44,-29.1,28.4
"startDT [UTC]","vpos","CH4 [ppm]","stdev(CH4) [ppm]","CO2 [ppm]","stdev(CO2) [ppm]","H2O [ppm]","stdev(H2O)","p_LGR [torr]","T_LGR [C]","mt1_LGR [us]","mt2_LGR [us]","T_ECpre [C]","T_EC1 [C]","T_EC2 [C]","p_inlet [hPa]","p_in [hPa]","p_out [hPa]","T_inlet [C]","RH_inlet [%]","dwpt_inlet [C]","T_vent [C]","RH_vent [%]","dwpt_vent [C]","flow_vent [l min-1]","flow_inlet [l min-1]","dwpt_sample [C]","T_room [C]"
2012-07-22 00:57:00,0.0,1.8941,0.0010,388.72,0.30,3.0,13.5,138.13,27.87,24.63,36.44,0.90,-27.20,-25.32,-41,535,-939,23.0,21.7,-0.0,23.1,1.7,-30.8,5.73,2.46,-29.1,28.5
2012-07-22 00:58:00,1.0,1.8867,0.0059,381.27,5.47,-0.5,3.2,138.14,27.87,24.63,36.45,0.95,-27.21,-25.61,-41,687,-938,23.1,21.9,0.1,23.1,1.7,-30.8,5.73,2.45,-29.1,28.4
2012-07-22 00:59:00,1.0,1.8801,0.0008,375.36,0.33,-0.5,2.5,138.13,27.87,24.63,36.45,0.96,-27.23,-25.87,-41,691,-939,23.1,21.7,0.0,23.1,1.7,-30.8,5.73,2.44,-29.2,28.4
2012-07-22 01:00:00,1.0,1.8806,0.0010,375.64,0.25,-0.7,1.7,138.13,27.87,24.63,36.45,0.99,-27.25,-26.12,-41,692,-938,23.1,21.7,-0.0,23.1,1.7,-30.7,5.73,2.44,-29.2,28.4
2012-07-22 01:01:00,1.0,1.8803,0.0009,375.69,0.29,1.5,7.7,138.13,27.87,24.63,36.45,0.98,-27.26,-26.35,-41,693,-939,23.1,22.0,0.2,23.1,1.7,-30.8,5.73,2.45,-29.2,28.4
2012-07-22 01:02:00,1.0,1.8805,0.0009,375.81,0.26,-1.0,0.0,138.13,27.88,24.63,36.45,0.96,-27.28,-26.58,-42,630,-938,23.1,22.3,0.4,23.1,1.7,-30.8,5.73,2.46,-29.2,28.4
"startDT [UTC]","vpos","CH4 [ppm]","stdev(CH4) [ppm]","CO2 [ppm]","stdev(CO2) [ppm]","H2O [ppm]","stdev(H2O)","p_LGR [torr]","T_LGR [C]","mt1_LGR [us]","mt2_LGR [us]","T_ECpre [C]","T_EC1 [C]","T_EC2 [C]","p_inlet [hPa]","p_in [hPa]","p_out [hPa]","T_inlet [C]","RH_inlet [%]","dwpt_inlet [C]","T_vent [C]","RH_vent [%]","dwpt_vent [C]","flow_vent [l min-1]","flow_inlet [l min-1]","dwpt_sample [C]","T_room [C]"
2012-07-22 01:05:00,0.9,1.8864,0.0050,381.07,4.76,1.2,9.2,138.13,27.88,24.63,36.44,0.93,-27.32,-27.17,-41,578,-938,23.1,21.5,-0.1,23.1,1.6,-31.0,5.73,2.44,-29.2,28.5
2012-07-22 01:06:00,1.0,1.8808,0.0010,375.77,0.30,2.1,9.4,138.13,27.88,24.63,36.45,0.94,-27.33,-27.33,-41,583,-939,23.1,21.3,-0.2,23.1,1.6,-30.9,5.73,2.44,-29.2,28.5
2012-07-22 01:07:00,1.0,1.8808,0.0009,375.74,0.27,0.7,7.9,138.13,27.88,24.63,36.45,0.96,-27.35,-27.09,-41,584,-939,23.1,21.4,-0.2,23.1,1.6,-31.0,5.73,2.43,-29.3,28.5
2012-07-22 01:08:00,1.0,1.8807,0.0009,375.86,0.26,2.5,10.4,138.13,27.88,24.63,36.45,0.99,-27.36,-27.10,-42,584,-938,23.1,21.4,-0.2,23.1,1.6,-30.9,5.73,2.45,-29.3,28.5
2012-07-22 01:09:00,1.0,1.8809,0.0009,375.82,0.27,2.1,9.6,138.13,27.89,24.63,36.45,1.01,-27.37,-27.25,-41,585,-939,23.1,21.4,-0.2,23.1,1.6,-31.0,5.73,2.46,-29.3,28.5
2012-07-22 01:10:00,1.0,1.8807,0.0011,375.75,0.25,-0.4,2.9,138.13,27.89,24.63,36.45,0.92,-27.38,-27.37,-41,586,-939,23.1,21.1,-0.3,23.1,1.6,-31.0,5.73,2.46,-29.3,28.5
2012-07-22 01:11:00,1.0,1.8806,0.0008,375.74,0.32,-0.6,2.1,138.13,27.90,24.64,36.45,0.91,-27.39,-27.12,-41,588,-938,23.1,20.9,-0.5,23.1,1.6,-30.9,5.73,2.45,-29.3,28.5
2012-07-22 01:12:00,4.0,1.8520,0.0192,383.60,5.12,1.8,8.2,138.13,27.90,24.63,36.45,0.94,-27.40,-27.16,-41,608,-939,23.1,21.1,-0.3,23.1,1.6,-31.0,5.73,2.44,-29.4,28.5
2012-07-22 01:13:00,4.0,1.8312,0.0009,389.05,0.24,-0.4,2.5,138.13,27.90,24.63,36.44,0.92,-27.41,-27.30,-41,605,-938,23.1,21.4,-0.2,23.2,1.6,-30.9,5.73,2.43,-29.4,28.5
2012-07-22 01:14:00,4.0,1.8311,0.0010,389.17,0.21,0.0,3.6,138.13,27.91,24.63,36.44,0.89,-27.42,-27.41,-41,604,-938,23.1,21.8,0.1,23.2,1.6,-30.9,5.73,2.44,-29.4,28.5
2012-07-22 01:15:00,4.0,1.8311,0.0010,389.13,0.23,0.3,4.7,138.13,27.91,24.63,36.44,0.95,-27.43,-27.15,-41,603,-939,23.1,21.6,-0.0,23.2,1.6,-30.9,5.73,2.45,-29.4,28.5
2012-07-22 01:16:00,4.0,1.8312,0.0008,389.17,0.24,-0.9,0.5,138.13,27.92,24.63,36.44,0.90,-27.36,-27.20,-41,602,-939,23.2,21.2,-0.3,23.2,1.6,-31.1,5.73,2.45,-29.4,28.5
"startDT [UTC]","vpos","CH4 [ppm]","stdev(CH4) [ppm]","CO2 [ppm]","stdev(CO2) [ppm]","H2O [ppm]","stdev(H2O)","p_LGR [torr]","T_LGR [C]","mt1_LGR [us]","mt2_LGR [us]","T_ECpre [C]","T_EC1 [C]","T_EC2 [C]","p_inlet [hPa]","p_in [hPa]","p_out [hPa]","T_inlet [C]","RH_inlet [%]","dwpt_inlet [C]","T_vent [C]","RH_vent [%]","dwpt_vent [C]","flow_vent [l min-1]","flow_inlet [l min-1]","dwpt_sample [C]","T_room [C]"
2012-07-22 01:19:00,0.0,1.8790,0.0191,388.74,0.31,1.0,5.3,138.13,27.93,24.63,36.45,0.79,-22.37,-27.53,-42,534,-939,23.2,21.7,0.1,23.2,1.9,-29.4,5.73,2.44,-29.2,28.6
2012-07-22 01:20:00,0.0,1.8946,0.0009,388.94,0.25,1.4,7.1,138.13,27.94,24.63,36.44,0.83,-20.47,-27.56,-42,534,-938,23.2,21.5,-0.0,23.2,2.0,-28.9,5.73,2.46,-29.2,28.6
2012-07-22 01:21:00,0.0,1.8949,0.0010,388.84,0.30,0.6,7.6,138.13,27.94,24.63,36.45,0.88,-18.65,-27.58,-42,535,-938,23.2,21.3,-0.1,23.3,2.0,-28.8,5.73,2.46,-29.2,28.6
2012-07-22 01:22:00,1.0,1.8870,0.0051,381.30,5.33,-1.0,0.0,138.13,27.94,24.63,36.44,0.98,-16.85,-27.59,-42,584,-939,23.2,21.3,-0.1,23.2,2.0,-28.8,5.73,2.45,-29.3,28.6
2012-07-22 01:23:00,1.0,1.8815,0.0009,375.74,0.32,-0.6,2.1,138.13,27.95,24.63,36.45,0.88,-15.28,-27.59,-42,585,-939,23.3,21.3,-0.1,23.3,2.0,-29.0,5.73,2.43,-29.3,28.6
2012-07-22 01:24:00,1.0,1.8815,0.0008,375.76,0.30,0.5,6.4,138.13,27.95,24.63,36.45,0.80,-13.72,-27.59,-42,585,-938,23.3,21.5,0.0,23.3,1.9,-29.1,5.73,2.44,-29.4,28.6
2012-07-22 01:25:00,1.0,1.8817,0.0009,375.79,0.27,0.9,6.6,138.13,27.96,24.63,36.46,0.87,-12.25,-27.58,-42,585,-939,23.3,21.2,-0.2,23.3,1.9,-29.3,5.73,2.45,-29.4,28.6
2012-07-22 01:26:00,1.0,1.8819,0.0010,375.82,0.27,-0.5,2.5,138.12,27.96,24.63,36.45,0.91,-10.86,-27.58,-42,584,-939,23.3,21.1,-0.2,23.3,1.9,-29.3,5.73,2.45,-29.5,28.7
2012-07-22 01:27:00,1.0,1.8815,0.0009,375.83,0.26,-0.5,2.6,138.13,27.97,24.63,36.45,0.95,-9.54,-27.57,-42,585,-938,23.3,21.0,-0.3,23.3,1.8,-29.5,5.73,2.45,-29.5,28.7
2012-07-22 01:28:00,1.0,1.8818,0.0008,375.82,0.23,-0.5,2.3,138.13,27.97,24.63,36.46,0.89,-8.29,-27.56,-42,585,-939,23.3,21.2,-0.1,23.3,1.8,-29.7,5.73,2.44,-29.5,28.6
2012-07-22 01:29:00,4.0,1.8521,0.0195,383.53,5.11,0.3,5.5,138.12,27.98,24.64,36.45,0.76,-7.06,-27.55,-42,595,-939,23.3,21.1,-0.2,23.3,1.8,-29.7,5.73,2.44,-29.5,28.7
2012-07-22 01:30:00,4.0,1.8317,0.0009,389.09,0.26,-0.2,4.0,138.12,27.99,24.63,36.45,0.84,-5.98,-27.55,-42,592,-939,23.3,21.3,-0.1,23.4,1.8,-29.9,5.73,2.43,-29.6,28.7
2012-07-22 01:31:00,4.0,1.8317,0.0009,389.08,0.33,-1.0,0.0,138.12,27.99,24.63,36.45,0.88,-4.91,-27.54,-42,591,-939,23.3,21.5,0.1,23.4,1.8,-29.9,5.73,2.45,-29.6,28.8
2012-07-22 01:32:00,4.0,1.8316,0.0009,389.24,0.27,-1.0,0.0,138.12,28.00,24.64,36.44,0.93,-3.88,-27.53,-42,590,-938,23.4,21.3,0.0,23.4,1.7,-30.2,5.73,2.45,-29.6,28.8
2012-07-22 01:33:00,4.0,1.8316,0.0008,389.12,0.29,-0.8,1.3,138.12,28.00,24.64,36.45,0.95,-2.89,-27.52,-42,589,-939,23.4,21.4,0.1,23.4,1.7,-30.2,5.73,2.44,-29.6,28.8
2012-07-22 01:34:00,4.0,1.8316,0.0009,389.11,0.34,-0.7,2.6,138.12,28.00,24.63,36.45,0.89,-1.97,-27.52,-42,589,-939,23.4,21.4,0.1,23.4,1.7,-30.1,5.73,2.43,-29.6,28.8
2012-07-22 01:35:00,4.0,1.8321,0.0007,388.99,0.31,-0.8,0.9,138.12,28.01,24.63,36.45,0.82,-1.09,-27.51,-42,588,-939,23.4,21.5,0.1,23.4,1.7,-30.3,5.73,2.43,-29.7,28.8
2012-07-22 01:36:00,5.0,1.7289,0.0651,365.70,14.85,-1.0,0.0,138.12,28.02,24.63,36.45,0.82,-0.22,-27.51,-42,603,-938,23.5,21.6,0.3,23.4,1.7,-30.2,5.73,2.44,-29.7,28.9
2012-07-22 01:37:00,5.0,1.6612,0.0010,350.23,0.27,-1.0,0.0,138.12,28.03,24.64,36.46,0.88,0.53,-27.50,-42,615,-939,23.5,21.7,0.4,23.5,1.7,-30.2,5.73,2.45,-29.7,28.9
2012-07-22 01:38:00,5.0,1.6614,0.0008,350.18,0.26,-1.0,0.0,138.12,28.03,24.63,36.46,0.92,1.28,-27.49,-42,614,-939,23.5,21.5,0.2,23.5,1.7,-30.5,5.73,2.44,-29.7,28.9
2012-07-22 01:39:00,5.0,1.6612,0.0008,350.11,0.28,-0.6,2.9,138.12,28.04,24.63,36.47,0.95,1.96,-27.48,-42,602,-939,23.5,21.4,0.2,23.5,1.7,-30.3,5.73,2.43,-29.8,29.0
2012-07-22 01:40:00,5.0,1.6613,0.0007,350.05,0.21,-1.0,0.0,138.12,28.05,24.63,36.47,0.92,2.51,-27.48,-42,599,-939,23.6,21.7,0.4,23.5,1.7,-30.5,5.73,2.43,-29.8,29.0
2012-07-22 01:41:00,5.0,1.6610,0.0009,349.94,0.28,-0.7,2.5,138.12,28.06,24.64,36.47,0.84,2.74,-27.46,-42,599,-939,23.6,21.9,0.5,23.5,1.7,-30.5,5.73,2.44,-29.8,29.0
2012-07-22 01:42:00,5.0,1.6608,0.0009,350.09,0.28,-0.9,1.0,138.12,28.07,24.64,36.47,0.84,2.88,-27.45,-42,598,-940,23.5,21.4,0.2,23.6,1.6,-30.7,5.73,2.45,-29.8,29.0
2012-07-22 01:43:00,2.0,1.7788,0.0751,375.84,16.92,-0.9,1.1,138.12,28.08,24.64,36.46,0.85,3.15,-27.44,-42,580,-939,23.5,20.7,-0.2,23.5,1.7,-30.4,5.73,2.44,-29.9,29.1
2012-07-22 01:44:00,2.0,1.8582,0.0009,394.59,0.31,-0.6,2.1,138.12,28.08,24.64,36.45,0.90,3.61,-27.43,-42,582,-939,23.6,20.6,-0.2,23.6,1.7,-30.5,5.73,2.43,-29.9,29.1
2012-07-22 01:45:00,2.0,1.8581,0.0008,394.65,0.27,-0.8,1.2,138.12,28.09,24.64,36.45,0.91,4.14,-27.42,-42,582,-940,23.6,20.9,-0.1,23.6,1.6,-30.7,5.73,2.42,-29.9,29.1
2012-07-22 01:46:00,2.0,1.8584,0.0009,394.66,0.32,-1.0,0.0,138.11,28.10,24.63,36.45,0.94,4.65,-27.41,-42,583,-940,23.6,21.0,0.0,23.6,1.6,-30.6,5.73,2.44,-30.0,29.1
2012-07-22 01:47:00,2.0,1.8586,0.0008,394.58,0.33,-1.0,0.0,138.11,28.11,24.63,36.45,0.92,5.15,-27.41,-42,583,-939,23.7,21.0,0.1,23.7,1.6,-30.7,5.73,2.46,-30.0,29.2
2012-07-22 01:48:00,2.0,1.8587,0.0009,394.60,0.28,-1.0,0.0,138.11,28.12,24.63,36.45,0.86,5.62,-27.40,-42,583,-939,23.7,20.9,0.0,23.7,1.6,-30.7,5.73,2.44,-30.1,29.2
2012-07-22 01:49:00,2.0,1.8583,0.0009,394.63,0.31,-0.7,1.7,138.11,28.13,24.64,36.45,0.85,6.09,-27.39,-42,583,-940,23.7,20.9,0.0,23.7,1.6,-30.7,5.73,2.42,-30.1,29.3
2012-07-22 01:50:00,0.0,1.8796,0.0140,391.29,2.36,-0.9,1.0,138.11,28.14,24.64,36.45,0.84,6.56,-27.38,-42,536,-940,23.7,20.8,-0.0,23.8,1.6,-30.9,5.73,2.44,-30.2,29.3
2012-07-22 01:51:00,0.0,1.8949,0.0010,388.71,0.30,-0.2,6.3,138.11,28.15,24.63,36.45,0.88,6.96,-27.37,-43,536,-939,23.8,20.7,-0.1,23.8,1.6,-30.7,5.73,2.45,-30.2,29.3
2012-07-22 01:52:00,0.0,1.8946,0.0010,388.75,0.26,-0.9,0.9,138.11,28.17,24.63,36.46,0.90,7.37,-27.36,-42,536,-939,23.8,20.4,-0.3,23.8,1.6,-30.7,5.73,2.45,-30.3,29.3
2012-07-22 01:53:00,0.0,1.8939,0.0008,388.89,0.27,-0.2,3.8,138.11,28.18,24.64,36.46,0.93,7.76,-27.35,-42,536,-940,23.8,20.1,-0.5,23.8,1.6,-30.9,5.73,2.44,-30.3,29.3
2012-07-22 01:54:00,0.0,1.8946,0.0010,388.41,0.42,-0.3,2.8,138.11,28.19,24.63,36.46,0.94,8.13,-27.35,-42,537,-940,23.9,20.5,-0.1,23.9,1.6,-30.8,5.73,2.42,-30.3,29.4
2012-07-22 01:55:00,0.0,1.8939,0.0009,388.39,0.24,-1.0,0.0,138.11,28.20,24.64,36.46,0.93,8.49,-27.33,-42,537,-940,23.9,20.6,-0.0,23.9,1.6,-30.7,5.73,2.42,-30.4,29.4
2012-07-22 01:56:00,0.0,1.8941,0.0008,388.59,0.37,-0.4,2.3,138.11,28.21,24.63,36.45,0.86,8.84,-27.32,-43,537,-940,23.9,20.5,-0.1,23.9,1.6,-30.7,5.73,2.44,-30.5,29.4
2012-07-22 01:57:00,0.0,1.8943,0.0008,388.70,0.31,-0.7,2.4,138.11,28.23,24.64,36.46,0.85,9.18,-27.31,-43,537,-940,24.0,20.4,-0.1,23.9,1.6,-30.8,5.73,2.45,-30.5,29.5
2012-07-22 01:58:00,0.0,1.8947,0.0009,388.58,0.33,-0.7,2.6,138.11,28.24,24.64,36.46,0.86,9.50,-27.30,-43,537,-940,23.9,20.4,-0.1,23.9,1.6,-30.8,5.73,2.43,-30.5,29.4
2012-07-22 01:59:00,0.0,1.8950,0.0009,388.27,0.35,-0.7,2.0,138.11,28.25,24.64,36.45,0.88,9.83,-27.29,-43,537,-940,24.0,20.7,0.1,23.9,1.5,-31.0,5.73,2.42,-30.5,29.5
2012-07-22 02:00:00,0.0,1.8952,0.0009,388.45,0.28,-0.8,1.4,138.11,28.26,24.64,36.46,0.91,10.13,-27.28,-43,537,-940,24.0,20.7,0.1,24.0,1.6,-30.9,5.73,2.42,-30.5,29.5
2012-07-22 02:01:00,0.0,1.8949,0.0009,388.45,0.25,-0.5,2.8,138.11,28.27,24.64,36.46,0.92,10.43,-27.26,-43,538,-940,24.0,20.6,0.1,24.0,1.6,-30.8,5.73,2.44,-30.5,29.5
2012-07-22 02:02:00,0.0,1.8939,0.0011,388.70,0.31,-0.7,2.0,138.11,28.28,24.64,36.46,0.94,10.72,-27.26,-43,538,-940,24.0,20.3,-0.1,24.0,1.6,-30.8,5.73,2.44,-30.5,29.5
2012-07-22 02:03:00,0.0,1.8930,0.0009,388.80,0.27,-0.9,1.0,138.11,28.29,24.64,36.45,0.94,11.00,-27.25,-43,538,-941,24.0,20.2,-0.1,24.0,1.6,-30.8,5.73,2.43,-30.5,29.5